SCP
0 0 0 0 0 0 0 0 -0 0 0 0 0 0 0 0 0 0 0 0 0 1 0 1 1 1 0 0 0 0 0 0
0 0 0 0 0 0 0 0 0 -0 -0 0 0 0 0 0 0 0 0 0 1 1 1 1 1 1 1 1 0 0 0 0
0 -0 0 0 0 0 0 0 0 0 -0 0 0 0 0 0 0 0 0 0 1 1 1 1 1 1 1 1 1 0 0 0
0 0 0 0 0 0 0 0 0 0 0 0 0 0 0 0 0 0 0 0 0 1 1 1 1 1 1 1 1 1 1 1
-0 0 0 0 0 0 0 0 0 0 0 0 0 0 0 0 0 0 0 0 0 2 1 1 2 2 2 2 1 1 1 1
0 0 0 0 0 0 0 0 0 0 0 -0 0 0 0 0 0 0 0 0 0 1 2 1 1 2 2 2 1 1 1 1
0 -0 0 0 0 0 0 0 0 0 0 0 0 0 0 0 0 0 0 0 0 0 1 1 1 1 2 1 1 2 1 1
0 0 0 0 0 0 0 0 0 0 0 0 0 0 0 0 0 0 0 0 0 0 1 1 1 1 2 1 1 1 1 1
0 0 0 0 0 0 0 0 0 0 0 0 0 0 0 0 0 0 0 0 0 3 3 1 1 1 2 1 1 1 1 2
0 0 0 0 0 0 0 0 0 0 0 0 0 0 0 0 0 0 0 0 0 1 3 3 1 1 2 1 1 1 1 2
0 0 0 0 0 0 0 0 0 0 0 0 0 0 0 0 0 0 0 0 0 1 4 4 4 2 2 2 1 1 1 1
0 0 0 0 0 0 0 0 0 0 0 0 0 0 0 0 0 0 0 0 0 1 3 3 3 4 5 4 2 1 1 1
0 0 0 0 0 0 0 0 0 0 0 0 0 0 0 0 0 0 0 -0 -0 1 2 4 3 3 4 2 1 1 1 1
0 0 0 0 0 0 0 0 0 0 0 0 0 0 0 0 0 0 0 -0 0 0 1 2 3 3 3 1 2 1 1 1
0 0 0 0 0 0 0 0 0 0 0 0 0 0 0 0 0 0 0 0 0 0 0 1 2 2 2 3 1 1 1 1
0 0 0 0 0 0 0 0 0 0 0 0 0 0 0 0 0 0 0 0 0 0 1 2 2 2 1 1 1 1 1 1
0 0 0 0 0 0 0 0 0 0 0 0 0 0 0 0 0 0 0 0 0 0 2 2 1 1 1 1 1 1 1 1
0 0 0 0 0 0 0 0 0 0 0 0 0 0 0 0 0 0 0 0 0 0 1 1 1 1 1 1 0 1 1 1
0 0 0 0 0 0 0 0 0 0 0 0 0 0 0 0 0 0 0 0 0 0 1 1 1 1 1 1 1 1 0 0
0 0 0 0 0 0 0 0 0 0 0 0 0 0 0 0 0 0 0 0 0 0 1 1 1 1 1 0 0 1 1 0
Wind_Speed_500mb
13 26 28 9 5 26 12 8 15 11 6 16 7 5 12 7 13 26 33 23 24 27 31 33 28 24 22 18 14 10 8 10
23 37 26 20 6 7 5 19 14 21 21 9 6 3 5 3 15 21 28 32 27 30 33 36 33 30 26 23 19 17 15 15
29 36 35 4 27 12 14 21 11 3 26 4 18 8 4 2 16 19 24 28 31 35 37 39 38 35 32 28 24 23 20 20
30 39 35 12 16 20 21 22 22 6 21 14 8 6 6 2 12 19 24 32 35 35 44 43 43 41 37 33 31 29 26 25
39 38 27 13 23 23 22 21 12 10 14 18 6 7 5 6 11 20 27 34 38 41 49 50 48 46 43 41 38 36 34 32
37 34 37 25 7 26 14 21 13 7 20 31 3 8 15 17 19 23 30 36 41 41 43 55 56 56 50 47 47 43 40 39
43 42 35 37 18 29 16 26 32 30 38 37 38 34 32 33 33 32 32 39 42 44 42 48 53 54 60 54 52 49 46 46
43 39 36 51 28 35 29 21 37 40 45 37 30 29 37 42 44 46 43 43 47 48 48 45 42 42 48 56 56 53 49 36
53 49 51 58 62 55 41 48 41 43 52 40 44 45 47 50 54 57 54 46 48 54 59 52 43 43 36 34 38 36 36 33
67 73 64 56 68 53 60 57 55 52 54 47 50 52 55 58 62 66 66 56 41 52 63 64 49 47 42 36 37 32 31 35
74 80 78 73 69 68 65 69 66 54 57 53 53 56 57 61 65 65 63 58 33 53 70 72 69 51 49 44 40 34 34 30
81 83 81 64 70 71 70 75 76 57 62 62 58 58 59 62 61 57 54 46 38 52 72 74 60 65 64 57 43 39 32 29
72 76 65 69 71 69 76 78 73 66 67 64 53 56 62 64 55 49 44 38 39 51 68 75 58 68 55 43 44 34 30 29
63 65 70 54 66 55 74 71 70 58 63 49 55 62 64 59 53 46 47 42 38 43 57 58 52 55 52 42 38 34 29 25
61 59 55 59 77 55 71 69 74 72 47 50 63 63 56 53 49 43 41 38 40 47 47 48 48 45 44 41 34 28 26 24
64 59 57 64 71 56 58 59 74 67 56 61 71 64 60 53 40 34 30 34 39 43 42 48 41 42 37 35 28 25 24 23
64 57 60 65 68 48 49 67 72 69 55 63 69 71 56 39 33 28 26 28 35 36 45 44 42 41 37 33 24 23 21 24
58 56 53 55 58 58 48 51 72 74 64 62 69 63 44 22 17 16 21 26 32 38 45 44 39 36 31 25 21 19 18 20
62 49 51 55 58 62 61 63 70 79 87 78 63 52 48 19 12 14 22 28 34 38 40 44 35 33 27 23 21 17 18 16
53 45 41 44 45 62 48 51 49 70 69 52 53 55 41 18 17 22 25 30 35 38 42 39 37 28 25 18 15 14 13 15
Wind_Direction_500mb
226 236 264 346 193 244 103 245 264 271 201 319 316 44 326 48 176 174 180 198 186 182 188 197 197 202 204 208 218 239 264 294
259 256 238 302 211 92 261 216 225 286 289 169 79 32 3 331 183 187 191 191 195 186 193 193 195 203 206 215 226 246 264 282
239 251 271 246 280 325 305 277 276 10 280 229 109 82 25 148 190 204 210 205 213 198 200 200 202 206 213 220 230 245 264 280
247 244 250 232 257 261 269 270 261 221 265 287 115 71 350 258 219 222 220 214 217 215 210 209 210 212 218 227 236 246 260 273
264 276 284 241 253 263 265 276 263 195 282 280 169 115 348 294 244 227 223 221 212 234 217 214 217 220 224 230 239 247 257 269
254 260 265 276 298 253 288 284 44 284 271 276 172 343 304 289 275 257 237 228 222 223 227 219 220 223 227 232 239 246 255 264
251 257 265 264 214 254 248 285 289 281 277 273 282 290 290 283 280 275 257 236 228 225 222 223 221 229 228 232 239 246 253 260
252 263 278 291 258 250 257 235 261 273 279 275 262 279 282 286 283 280 261 247 236 225 224 220 213 220 237 234 237 245 252 251
254 257 271 272 269 275 287 279 276 289 285 299 289 286 282 279 280 283 275 270 239 229 221 218 217 213 221 220 224 231 236 241
258 268 278 274 267 272 270 277 284 286 283 286 287 285 289 289 288 283 279 263 243 223 231 217 211 214 213 214 217 222 230 239
258 262 270 271 275 278 272 270 282 285 283 280 277 283 291 291 288 283 275 263 254 225 230 231 210 212 211 209 216 219 226 237
259 262 267 266 267 262 262 270 268 275 274 274 277 285 292 295 291 285 273 262 250 225 226 234 226 201 213 207 208 215 222 232
256 260 260 259 262 261 266 267 270 271 272 268 272 287 293 294 288 277 265 259 244 224 220 230 228 205 210 212 205 214 223 227
251 251 251 247 260 266 269 267 267 263 272 276 279 287 296 295 283 267 260 258 245 222 215 222 212 205 208 209 210 213 221 227
253 249 248 240 255 256 267 263 264 265 272 274 277 289 294 294 280 265 260 250 239 212 204 207 203 205 206 207 206 212 221 230
255 254 247 248 260 255 263 266 268 271 262 273 278 288 294 294 271 256 256 243 215 207 197 199 196 196 197 209 212 216 228 237
248 246 241 258 263 256 258 264 262 260 255 267 280 285 289 281 257 261 236 217 208 192 187 186 187 190 197 205 211 221 232 239
260 261 258 253 257 269 255 260 268 271 268 265 276 278 277 263 250 241 213 197 187 179 179 177 185 188 198 203 217 226 237 239
251 258 259 262 267 261 260 262 264 269 272 272 273 266 267 228 214 199 192 182 174 169 172 167 180 181 179 189 195 228 240 259
251 257 257 251 265 257 263 264 259 263 261 257 256 265 247 189 192 190 181 170 162 162 162 167 173 182 187 197 219 224 228 256
Wind_Speed_850mb
13 26 28 9 5 26 12 8 15 11 6 16 7 5 12 7 13 26 33 23 24 27 31 33 28 24 22 18 14 10 8 10
23 37 26 20 6 7 5 19 14 21 21 9 6 3 5 3 15 21 28 32 27 30 33 36 33 30 26 23 19 17 15 15
29 36 35 4 27 12 14 21 11 3 26 4 18 8 4 2 16 19 24 28 31 35 37 39 38 35 32 28 24 23 20 20
30 39 35 12 16 20 21 22 22 6 21 14 8 6 6 2 12 19 24 32 35 35 44 43 43 41 37 33 31 29 26 25
39 38 27 13 23 23 22 21 12 10 14 18 6 7 5 6 11 20 27 34 38 41 49 50 48 46 43 41 38 36 34 32
37 34 37 25 7 26 14 21 13 7 20 31 3 8 15 17 19 23 30 36 41 41 43 55 56 56 50 47 47 43 40 39
43 42 35 37 18 29 16 26 32 30 38 37 38 34 32 33 33 32 32 39 42 44 42 48 53 54 60 54 52 49 46 46
43 39 36 51 28 35 29 21 37 40 45 37 30 29 37 42 44 46 43 43 47 48 48 45 42 42 48 56 56 53 49 36
53 49 51 58 62 55 41 48 41 43 52 40 44 45 47 50 54 57 54 46 48 54 59 52 43 43 36 34 38 36 36 33
67 73 64 56 68 53 60 57 55 52 54 47 50 52 55 58 62 66 66 56 41 52 63 64 49 47 42 36 37 32 31 35
74 80 78 73 69 68 65 69 66 54 57 53 53 56 57 61 65 65 63 58 33 53 70 72 69 51 49 44 40 34 34 30
81 83 81 64 70 71 70 75 76 57 62 62 58 58 59 62 61 57 54 46 38 52 72 74 60 65 64 57 43 39 32 29
72 76 65 69 71 69 76 78 73 66 67 64 53 56 62 64 55 49 44 38 39 51 68 75 58 68 55 43 44 34 30 29
63 65 70 54 66 55 74 71 70 58 63 49 55 62 64 59 53 46 47 42 38 43 57 58 52 55 52 42 38 34 29 25
61 59 55 59 77 55 71 69 74 72 47 50 63 63 56 53 49 43 41 38 40 47 47 48 48 45 44 41 34 28 26 24
64 59 57 64 71 56 58 59 74 67 56 61 71 64 60 53 40 34 30 34 39 43 42 48 41 42 37 35 28 25 24 23
64 57 60 65 68 48 49 67 72 69 55 63 69 71 56 39 33 28 26 28 35 36 45 44 42 41 37 33 24 23 21 24
58 56 53 55 58 58 48 51 72 74 64 62 69 63 44 22 17 16 21 26 32 38 45 44 39 36 31 25 21 19 18 20
62 49 51 55 58 62 61 63 70 79 87 78 63 52 48 19 12 14 22 28 34 38 40 44 35 33 27 23 21 17 18 16
53 45 41 44 45 62 48 51 49 70 69 52 53 55 41 18 17 22 25 30 35 38 42 39 37 28 25 18 15 14 13 15
Wind_Direction_850mb
226 236 264 346 193 244 103 245 264 271 201 319 316 44 326 48 176 174 180 198 186 182 188 197 197 202 204 208 218 239 264 294
259 256 238 302 211 92 261 216 225 286 289 169 79 32 3 331 183 187 191 191 195 186 193 193 195 203 206 215 226 246 264 282
239 251 271 246 280 325 305 277 276 10 280 229 109 82 25 148 190 204 210 205 213 198 200 200 202 206 213 220 230 245 264 280
247 244 250 232 257 261 269 270 261 221 265 287 115 71 350 258 219 222 220 214 217 215 210 209 210 212 218 227 236 246 260 273
264 276 284 241 253 263 265 276 263 195 282 280 169 115 348 294 244 227 223 221 212 234 217 214 217 220 224 230 239 247 257 269
254 260 265 276 298 253 288 284 44 284 271 276 172 343 304 289 275 257 237 228 222 223 227 219 220 223 227 232 239 246 255 264
251 257 265 264 214 254 248 285 289 281 277 273 282 290 290 283 280 275 257 236 228 225 222 223 221 229 228 232 239 246 253 260
252 263 278 291 258 250 257 235 261 273 279 275 262 279 282 286 283 280 261 247 236 225 224 220 213 220 237 234 237 245 252 251
254 257 271 272 269 275 287 279 276 289 285 299 289 286 282 279 280 283 275 270 239 229 221 218 217 213 221 220 224 231 236 241
258 268 278 274 267 272 270 277 284 286 283 286 287 285 289 289 288 283 279 263 243 223 231 217 211 214 213 214 217 222 230 239
258 262 270 271 275 278 272 270 282 285 283 280 277 283 291 291 288 283 275 263 254 225 230 231 210 212 211 209 216 219 226 237
259 262 267 266 267 262 262 270 268 275 274 274 277 285 292 295 291 285 273 262 250 225 226 234 226 201 213 207 208 215 222 232
256 260 260 259 262 261 266 267 270 271 272 268 272 287 293 294 288 277 265 259 244 224 220 230 228 205 210 212 205 214 223 227
251 251 251 247 260 266 269 267 267 263 272 276 279 287 296 295 283 267 260 258 245 222 215 222 212 205 208 209 210 213 221 227
253 249 248 240 255 256 267 263 264 265 272 274 277 289 294 294 280 265 260 250 239 212 204 207 203 205 206 207 206 212 221 230
255 254 247 248 260 255 263 266 268 271 262 273 278 288 294 294 271 256 256 243 215 207 197 199 196 196 197 209 212 216 228 237
248 246 241 258 263 256 258 264 262 260 255 267 280 285 289 281 257 261 236 217 208 192 187 186 187 190 197 205 211 221 232 239
260 261 258 253 257 269 255 260 268 271 268 265 276 278 277 263 250 241 213 197 187 179 179 177 185 188 198 203 217 226 237 239
251 258 259 262 267 261 260 262 264 269 272 272 273 266 267 228 214 199 192 182 174 169 172 167 180 181 179 189 195 228 240 259
251 257 257 251 265 257 263 264 259 263 261 257 256 265 247 189 192 190 181 170 162 162 162 167 173 182 187 197 219 224 228 256